Location: �perlecques
(50.8057°N, 2.1521°E)
Time: 01:48:41
(UTC+00:00)

ITAMSAT 1 - Pass Details

Date: 10 April 2023
Orbit: 782 x 797 km, 98.8° (Epoch: 07 June)

Event Time Altitude Azimuth Distance (km) Brightness Sun altitude
Rises 19:06:51 0° 158° (SSE) 3,285 10.5 -5.2°
Reaches altitude 10° 19:09:09 10° 157° (SSE) 2,361 9.7 -5.5°
Maximum altitude 19:14:22 79° 72° (ENE) 818 7.7 -6.3°
Drops below altitude 10° 19:19:38 10° 347° (NNW) 2,381 10.7 -7.1°
Sets 19:21:59 0° 346° (NNW) 3,316 11.5 -7.4°
